[[{"header":{"parameterUnit":"m.s-1","parameterCategory":1,"la1":30.2992,"la2":30.254,"lo1":-89.0895,"lo2":-89.0443,"dy":0.0025,"dx":0.0025,"nx":19,"ny":19,"refTime":"2026-03-09T03:00:00:Z","depth":0,"parameterNumber":2,"parameterNumberName":"U-component_of_WINDS"},"data":[0,0,0,-1.6178,-1.6178,-1.6177,-1.6177,-1.6187,-1.6187,0,0,0,0,0,0,0,0,0,0,0,-1.6186,-1.6186,-1.6178,-1.6178,-1.6177,-1.6177,-1.6187,-1.6187,0,0,0,0,0,0,0,0,0,0,0,-1.6186,-1.6186,-1.6186,-1.6178,-1.6177,-1.6177,-1.6187,-1.6184,0,0,0,0,0,0,0,0,0,0,-1.6183,-1.6197,-1.6186,-1.6186,-1.6178,-1.6177,-1.6177,-1.6183,-1.6184,-1.6193,0,-1.6202,0,-1.6195,-1.6188,-1.6188,0,0,0,-1.6173,-1.6196,-1.619,-1.6186,-1.6179,-1.6177,-1.6176,-1.6184,-1.6184,-1.6194,-1.6202,-1.6202,-1.6195,-1.6189,-1.6189,-1.6254,-1.6254,0,0,-1.6174,-1.6189,-1.6189,-1.619,-1.6191,-1.6176,-1.6176,-1.6184,-1.6194,-1.6202,-1.6202,-1.6195,-1.6189,-1.6189,-1.6253,-1.6254,0,0,0,-1.6177,-1.6189,-1.6182,-1.619,-1.6189,-1.6176,-1.6176,-1.6194,-1.619,-1.6202,-1.6195,-1.6189,-1.6189,-1.6253,-1.6254,-1.6294,0,0,0,-1.6177,-1.6191,-1.6183,-1.6192,-1.6189,-1.6191,-1.6186,-1.6189,-1.619,-1.6195,-1.6189,-1.6189,-1.6252,-1.6253,-1.6292,-1.6311,0,0,0,-1.6183,-1.6192,-1.6194,-1.6193,-1.6193,-1.6191,-1.6187,-1.6189,-1.6186,-1.6188,-1.6189,-1.6252,-1.6253,-1.629,-1.6307,-1.6332,0,0,0,-1.6195,-1.6231,-1.6195,-1.6233,-1.6193,-1.6216,-1.6187,-1.6204,-1.6211,-1.6189,-1.6252,-1.6254,-1.6289,-1.6305,-1.6329,-1.6354,-1.6366,0,0,-1.6249,-1.6238,-1.6259,-1.6227,-1.626,-1.6215,-1.6254,-1.6247,-1.6233,-1.6248,-1.6249,-1.6293,-1.6307,-1.6331,-1.6431,-1.644,0,0,0,-1.6281,-1.6296,-1.6302,-1.6309,-1.6304,-1.6301,-1.6285,-1.6282,-1.6294,-1.6244,-1.6308,-1.6316,-1.633,-1.6341,-1.6349,-1.636,-1.626,-1.626,-1.6259,-1.6379,-1.6359,-1.6393,-1.6373,-1.6381,-1.6365,-1.6369,-1.6363,-1.6341,-1.6357,-1.6361,-1.6423,-1.6437,-1.6443,-1.6454,-1.6373,-1.6374,-1.6374,-1.6374,-1.6455,-1.6473,-1.6444,-1.6465,-1.6445,-1.6464,-1.645,-1.6434,-1.6449,-1.6419,-1.643,-1.6398,-1.6454,-1.6463,-1.6377,-1.6376,-1.6376,-1.6375,-1.6375,-1.6516,-1.6521,-1.6517,-1.6525,-1.6535,-1.6514,-1.6529,-1.6511,-1.6493,-1.6505,-1.6506,-1.6505,-1.6502,-1.6507,-1.6507,-1.6507,-1.6508,-1.6508,-1.6508,-1.658,-1.6574,-1.6588,-1.6586,-1.6589,-1.6589,-1.6575,-1.6577,-1.6574,-1.6559,-1.6559,-1.6536,-1.6464,-1.6445,-1.6511,-1.651,-1.651,-1.651,-1.651,-1.6662,-1.6641,-1.6663,-1.6666,-1.6662,-1.6672,-1.6648,-1.6654,-1.6653,-1.6661,-1.6636,-1.6586,-1.6574,-1.6567,-1.6552,-1.6641,-1.6641,-1.6641,-1.6641,-1.6713,-1.6705,-1.6723,-1.6728,-1.6731,-1.6712,-1.6739,-1.6728,-1.6714,-1.6712,-1.6697,-1.6675,-1.6669,-1.666,-1.6652,-1.6637,-1.6746,-1.6746,-1.6746,-1.6762,-1.6754,-1.6779,-1.6764,-1.676,-1.6757,-1.6781,-1.6789,-1.6768,-1.675,-1.671,-1.6706,-1.6671,-1.6661,-1.664,-1.6627,-1.6599,0,0]},{"header":{"parameterUnit":"m.s-1","parameterCategory":1,"la1":30.2992,"la2":30.254,"lo1":-89.0895,"lo2":-89.0443,"dy":0.0025,"dx":0.0025,"nx":19,"ny":19,"refTime":"2026-03-09T03:00:00:Z","depth":0,"parameterNumber":3,"parameterNumberName":"V-component_of_WINDS"},"data":[0,0,0,0.8245,0.8244,0.8186,0.8186,0.811,0.8109,0,0,0,0,0,0,0,0,0,0,0,0.826,0.826,0.8245,0.8244,0.8186,0.8186,0.811,0.8109,0,0,0,0,0,0,0,0,0,0,0,0.8261,0.826,0.8259,0.8244,0.8186,0.8186,0.811,0.8155,0,0,0,0,0,0,0,0,0,0,0.8211,0.8223,0.826,0.8259,0.8243,0.8186,0.8186,0.8157,0.8152,0.8135,0,0.8119,0,0.8113,0.8104,0.8103,0,0,0,0.8245,0.8227,0.8213,0.8259,0.8243,0.8186,0.8212,0.8154,0.8148,0.8128,0.8117,0.8115,0.8111,0.8103,0.8103,0.8,0.8,0,0,0.8249,0.8249,0.8217,0.821,0.8217,0.8214,0.8211,0.8151,0.8139,0.8117,0.8113,0.811,0.8103,0.8102,0.8001,0.8,0,0,0,0.8257,0.8251,0.8239,0.8213,0.8202,0.8213,0.8208,0.8142,0.8138,0.8112,0.8109,0.8102,0.8101,0.8001,0.8001,0.7974,0,0,0,0.8259,0.8255,0.824,0.8239,0.8203,0.8171,0.8201,0.8142,0.8135,0.811,0.8102,0.81,0.8002,0.8001,0.7976,0.7961,0,0,0,0.8265,0.8256,0.8247,0.8239,0.8215,0.8172,0.8165,0.814,0.8133,0.8103,0.81,0.8002,0.8001,0.7978,0.7964,0.7935,0,0,0,0.8271,0.8223,0.8247,0.8192,0.8215,0.8156,0.8165,0.812,0.8092,0.8102,0.8002,0.8001,0.7978,0.7966,0.7937,0.7911,0.79,0,0,0.821,0.8215,0.8183,0.8203,0.8139,0.8164,0.8097,0.8071,0.8068,0.8023,0.8021,0.7975,0.7964,0.7935,0.7838,0.7829,0,0,0,0.8164,0.8141,0.8124,0.8097,0.8076,0.8058,0.8042,0.8033,0.7995,0.8045,0.7957,0.795,0.7933,0.7921,0.7913,0.79,0.7995,0.7995,0.7995,0.8076,0.8076,0.8024,0.8018,0.7992,0.7978,0.7957,0.7942,0.7949,0.7928,0.7915,0.7856,0.7841,0.7835,0.7821,0.7901,0.7901,0.7901,0.7901,0.7987,0.7955,0.7968,0.7921,0.7923,0.7884,0.787,0.7876,0.7841,0.7865,0.785,0.7876,0.7826,0.7814,0.7899,0.7899,0.7899,0.7899,0.79,0.793,0.7915,0.7905,0.7868,0.784,0.7837,0.7803,0.7805,0.7807,0.7793,0.778,0.778,0.7782,0.7787,0.7786,0.7786,0.7786,0.7786,0.7786,0.7874,0.7864,0.7836,0.7812,0.7797,0.7777,0.7765,0.775,0.7734,0.7738,0.7738,0.7748,0.7821,0.7839,0.7783,0.7783,0.7784,0.7784,0.7784,0.7783,0.7805,0.7761,0.7746,0.772,0.7694,0.7698,0.7668,0.7656,0.7641,0.7654,0.7708,0.7713,0.7719,0.7734,0.7654,0.7654,0.7654,0.7654,0.7735,0.7739,0.7696,0.7672,0.7649,0.765,0.7602,0.7593,0.7587,0.7581,0.7593,0.7614,0.762,0.7621,0.7629,0.7644,0.7542,0.7542,0.7542,0.7681,0.7683,0.7641,0.7636,0.7617,0.7601,0.7557,0.753,0.7528,0.7537,0.7576,0.7581,0.7614,0.7625,0.7633,0.7646,0.7672,0,0]}]]